Simultaneous Nadir Overpasses (SNOs) Predictions

Prediction of SNOs between AURA and NPP Satellite Orbit:

Table of predicted SNOs for the next 14.0 days since TLE Epoch: 12/1/2012
Index Date (AURA) Time (AURA) AURA Lat,Lon Date (NPP) Time (NPP) NPP Lat,Lon Distance(km) Time Diff (sec)
1 12/02/2012 04:30:43 -79.74,-169.17 12/02/2012 04:30:10 -79.75,-169.10 1.73 33
2 12/02/2012 05:20:04 79.92, -0.13 12/02/2012 05:20:49 79.92, -0.13 0.12 45
3 12/04/2012 20:47:11 -79.81, -52.80 12/04/2012 20:47:03 -79.81, -52.76 1.02 8
4 12/04/2012 21:36:32 79.98, 116.24 12/04/2012 21:37:42 79.98, 116.22 0.31 70
5 12/07/2012 12:14:15 79.70,-105.36 12/07/2012 12:13:15 79.71,-105.26 2.01 60
6 12/07/2012 13:03:37 -79.89, 63.73 12/07/2012 13:03:54 -79.90, 63.84 2.44 17
7 12/10/2012 04:30:43
